Location: ???????
(55.8930°N, 38.0586°E)
Time: 21:20:03
(UTC+00:00)

Cosmos 1371 Rocket - Pass Details

Date: 14 April 2024
Orbit: 751 x 787 km, 74.0° (Epoch: 22 May)

Event Time Altitude Azimuth Distance (km) Brightness Sun altitude
Rises 01:12:43 0° 330° (NNW) 3,231 7.3 -9.8°
Reaches altitude 10° 01:15:06 10° 326° (NNW) 2,306 6.5 -9.6°
Maximum altitude 01:20:14 58° 249° (WSW) 895 4.1 -8.9°
Drops below altitude 10° 01:25:22 10° 171° (S) 2,314 6.3 -8.3°
Sets 01:27:47 0° 168° (SSE) 3,242 7.1 -8.0°
